EW0608 Weather Reports


Display with metric or nautical units.
time (UTC)temp
F
wind
direction
speed
MPH
gust
MPH
rain 1hr
in
rain 24hr
in
rain mn
in
humidity
%
barometer
mb
20260504042853 40 309 0.0 0.0 0.00 0.36 0.00 81 1015.0
20260504042345 40 309 0.0 0.0 0.00 0.36 0.00 81 1015.0
20260504041836 40 309 0.0 0.0 0.00 0.36 0.00 80 1015.0
20260504041550 40 309 0.0 0.0 0.00 0.36 0.00 80 1015.4
20260504041350 41 309 0.0 0.0 0.00 0.36 0.00 80 1014.9
20260504040840 41 309 0.0 0.0 0.00 0.36 0.00 79 1015.0
20260504040353 41 309 0.0 0.0 0.00 0.36 0.00 78 1015.0
20260504040003 40 309 0.0 0.0 0.00 0.36 0.36 78 1015.5
20260504035903 41 309 0.0 0.0 0.00 0.36 0.36 77 1015.0
20260504035434 41 309 0.0 0.0 0.00 0.36 0.36 76 1015.0
20260504034902 41 309 0.0 0.0 0.00 0.36 0.36 77 1015.0
20260504034554 41 309 0.0 0.0 0.00 0.36 0.36 78 1015.4
20260504034354 41 309 0.0 0.0 0.00 0.36 0.36 78 1014.9
20260504033845 42 309 0.0 0.0 0.00 0.36 0.36 77 1015.0
20260504033337 42 309 0.0 0.0 0.00 0.36 0.36 77 1014.9
20260504033051 41 309 0.0 0.0 0.00 0.36 0.36 76 1015.2
20260504032850 42 309 0.0 0.0 0.00 0.36 0.36 76 1014.7
20260504032401 42 309 0.0 0.0 0.00 0.36 0.36 76 1014.7
20260504031853 43 309 0.0 0.0 0.00 0.36 0.36 76 1014.7
20260504031524 42 309 0.0 0.0 0.00 0.36 0.36 76 1015.1
20260504030910 43 309 0.0 0.0 0.00 0.36 0.36 72 1014.7
20260504030340 43 309 0.0 0.0 0.00 0.36 0.36 72 1014.8
20260504030049 43 309 0.0 0.0 0.00 0.36 0.36 71 1015.2
20260504025849 44 309 0.0 0.0 0.00 0.36 0.36 70 1014.7
20260504025346 44 309 0.0 0.0 0.00 0.36 0.36 69 1014.7
20260504024837 44 309 0.0 0.0 0.00 0.36 0.36 74 1014.8
20260504024606 43 23 0.0 0.0 0.00 0.36 0.36 74 1015.2
20260504024350 44 23 0.0 0.0 0.00 0.36 0.36 73 1014.8
20260504023843 44 23 0.0 0.0 0.00 0.36 0.36 71 1014.8
20260504023356 45 23 0.0 0.0 0.00 0.36 0.36 70 1014.7
20260504023049 44 23 0.0 0.0 0.00 0.36 0.36 70 1015.1
20260504022847 45 23 0.0 0.0 0.00 0.36 0.36 70 1014.6
20260504022338 45 23 0.0 0.0 0.00 0.36 0.36 70 1014.7
20260504021530 44 23 0.0 0.0 0.00 0.36 0.36 71 1015.2
20260504020840 45 23 0.0 0.0 0.00 0.36 0.36 69 1014.6
20260504020352 45 23 0.0 0.0 0.00 0.36 0.36 69 1014.5
20260504020043 45 23 0.0 0.0 0.00 0.36 0.36 68 1014.9
20260504015841 45 23 0.0 0.0 0.00 0.36 0.36 66 1014.5
20260504015412 46 23 0.0 0.0 0.00 0.36 0.36 66 1014.4
20260504014843 46 23 0.0 0.0 0.00 0.36 0.36 65 1014.4
20260504014604 45 23 0.0 0.0 0.00 0.36 0.36 64 1014.7
20260504014355 46 23 0.0 0.0 0.00 0.36 0.36 64 1014.3
20260504013848 46 23 0.0 0.0 0.00 0.36 0.36 64 1014.2
20260504013341 47 23 0.0 0.0 0.00 0.36 0.36 66 1014.1
20260504013056 46 23 0.0 0.0 0.00 0.36 0.36 65 1014.5
20260504012852 47 23 0.0 0.0 0.00 0.36 0.36 62 1014.1
20260504012341 47 23 0.0 0.0 0.00 0.36 0.36 60 1014.1
20260504011854 47 23 0.0 0.0 0.00 0.36 0.36 60 1014.0
20260504011545 47 23 0.0 0.0 0.00 0.36 0.36 59 1014.4
20260504011344 48 23 0.0 0.0 0.00 0.36 0.36 59 1014.0
20260504010857 48 23 0.0 0.0 0.00 0.36 0.36 60 1014.0
20260504010350 48 23 0.0 0.0 0.00 0.36 0.36 59 1014.0
20260504010040 48 23 0.0 0.0 0.00 0.36 0.36 58 1014.3
20260504005837 48 23 0.0 0.0 0.00 0.36 0.36 57 1013.9
20260504005349 49 23 0.0 0.0 0.00 0.36 0.36 57 1014.0
20260504004840 49 23 0.0 0.0 0.00 0.36 0.36 55 1013.9
20260504004553 49 23 0.0 0.0 0.00 0.36 0.36 55 1014.3
20260504004352 49 23 0.0 0.0 0.00 0.36 0.36 54 1013.9
20260504003845 50 23 0.0 0.0 0.00 0.36 0.36 55 1013.8
20260504003340 51 23 0.0 0.0 0.00 0.36 0.36 53 1013.8
20260504003010 51 23 0.0 0.0 0.00 0.36 0.36 52 1014.2
20260504002909 51 23 0.0 0.0 0.00 0.36 0.36 51 1013.8
20260504002359 52 23 0.0 0.0 0.00 0.36 0.36 50 1013.7
20260504001851 52 23 0.0 0.0 0.00 0.36 0.36 50 1013.7
20260504001550 52 23 0.0 0.0 0.00 0.36 0.36 50 1014.2
20260504001347 52 23 0.0 0.0 0.00 0.36 0.36 51 1013.7
20260504000838 53 23 0.0 0.0 0.00 0.36 0.36 50 1013.7
20260504000354 53 23 0.0 0.0 0.00 0.36 0.36 50 1013.7
20260504000059 53 23 0.0 0.0 0.00 0.36 0.36 50 1014.1
20260503235414 55 23 0.0 0.0 0.00 0.36 0.36 50 1013.5
20260503234846 55 23 0.0 0.0 0.00 0.36 0.36 51 1013.5
20260503234549 55 23 0.0 0.0 0.00 0.36 0.36 45 1013.9
20260503234337 56 23 0.0 0.0 0.00 0.36 0.36 44 1013.5
20260503233850 57 304 0.0 0.0 0.00 0.36 0.36 42 1013.4
20260503233341 58 304 0.0 1.0 0.00 0.36 0.36 35 1013.4
20260503233013 57 335 0.0 1.0 0.01 0.36 0.36 36 1013.9
20260503232913 58 347 0.0 1.0 0.01 0.36 0.36 36 1013.5
20260503232345 58 55 0.0 4.0 0.01 0.36 0.36 36 1013.4
20260503231916 59 42 0.0 5.0 0.01 0.36 0.36 34 1013.4
20260503231509 59 217 2.0 5.0 0.01 0.36 0.36 34 1013.8
20260503231408 60 300 2.0 5.0 0.03 0.36 0.36 35 1013.4
20260503230840 60 46 1.0 4.0 0.03 0.36 0.36 32 1013.3
20260503230413 60 10 3.0 6.0 0.03 0.36 0.36 31 1013.3
20260503230042 60 61 1.0 6.0 0.03 0.36 0.36 32 1013.8
20260503225841 60 61 3.0 6.0 0.03 0.36 0.36 31 1013.3
20260503225353 60 50 2.0 5.0 0.03 0.36 0.36 31 1013.4
20260503224846 61 335 2.0 7.0 0.03 0.36 0.36 31 1013.3
20260503224558 60 24 2.0 7.0 0.03 0.36 0.36 31 1013.8
20260503224358 61 168 2.0 7.0 0.03 0.36 0.36 31 1013.4
20260503223849 61 331 2.0 5.0 0.03 0.36 0.36 31 1013.2
20260503223340 61 147 3.0 6.0 0.02 0.35 0.35 31 1013.2
20260503223054 60 5 2.0 6.0 0.02 0.35 0.35 30 1013.6
20260503222853 61 19 3.0 6.0 0.02 0.35 0.35 30 1013.2
20260503222345 61 317 2.0 9.0 0.02 0.35 0.35 29 1013.2
20260503221836 61 32 2.0 9.0 0.02 0.35 0.35 30 1013.3
20260503221508 60 133 5.0 9.0 0.02 0.35 0.35 30 1013.7
20260503221408 61 298 4.0 7.0 0.00 0.33 0.33 30 1013.3
20260503220900 61 44 3.0 6.0 0.00 0.33 0.33 30 1013.3
20260503220353 61 139 2.0 8.0 0.01 0.33 0.33 31 1013.3
20260503220042 60 5 2.0 8.0 0.01 0.33 0.33 30 1013.8
20260503215842 61 355 5.0 8.0 0.01 0.33 0.33 29 1013.4
20260503215414 61 335 4.0 7.0 0.01 0.33 0.33 30 1013.5
20260503214925 61 22 3.0 7.0 0.01 0.33 0.33 29 1013.5
20260503214553 61 209 1.0 8.0 0.01 0.33 0.33 31 1014.0
20260503214352 61 119 3.0 10.0 0.01 0.33 0.33 30 1013.4
20260503213904 61 254 4.0 10.0 0.01 0.33 0.33 30 1013.4
20260503213334 61 52 2.0 7.0 0.01 0.33 0.33 29 1013.4
20260503213048 61 334 3.0 7.0 0.01 0.33 0.33 29 1013.9
20260503212847 61 360 3.0 7.0 0.01 0.33 0.33 30 1013.3
20260503212339 61 156 4.0 7.0 0.01 0.33 0.33 30 1013.4
20260503211912 61 280 2.0 8.0 0.05 0.33 0.33 30 1013.5
20260503211544 60 138 2.0 8.0 0.05 0.33 0.33 30 1014.0
20260503211342 61 78 4.0 11.0 0.05 0.33 0.33 29 1013.5
20260503210835 62 68 3.0 11.0 0.05 0.33 0.33 29 1013.5
20260503210348 62 316 2.0 8.0 0.04 0.32 0.32 29 1013.4
20260503210039 61 334 3.0 8.0 0.04 0.32 0.32 29 1014.0
20260503205837 62 301 3.0 8.0 0.04 0.32 0.32 30 1013.5
20260503205350 61 284 2.0 7.0 0.04 0.32 0.32 30 1013.6
20260503204902 61 140 3.0 7.0 0.04 0.32 0.32 29 1013.7
20260503204555 61 250 2.0 7.0 0.04 0.32 0.32 29 1014.1
20260503204354 62 265 2.0 7.0 0.04 0.32 0.32 28 1013.7
20260503203846 63 78 3.0 7.0 0.04 0.32 0.32 29 1013.8
20260503203336 62 49 2.0 12.0 0.04 0.32 0.32 29 1013.7
20260503203105 61 355 1.0 12.0 0.04 0.32 0.32 30 1014.3
20260503202848 61 303 2.0 12.0 0.04 0.32 0.32 29 1013.8
20260503202345 61 32 4.0 11.0 0.03 0.30 0.30 29 1014.0
20260503201855 62 82 3.0 6.0 0.01 0.28 0.28 29 1013.8
20260503201548 62 283 2.0 9.0 0.01 0.28 0.28 28 1014.4
20260503201346 62 277 3.0 9.0 0.01 0.28 0.28 30 1013.9
20260503200857 62 61 4.0 10.0 0.01 0.28 0.28 30 1013.9
20260503200410 63 299 3.0 8.0 0.01 0.28 0.28 30 1013.9
20260503200059 62 29 4.0 9.0 0.01 0.28 0.28 30 1014.5
20260503195858 62 176 2.0 6.0 0.02 0.28 0.28 29 1014.2
20260503195350 62 325 4.0 7.0 0.02 0.28 0.28 29 1014.1
20260503194842 60 46 4.0 7.0 0.02 0.28 0.28 31 1014.2
20260503194540 59 9 3.0 7.0 0.02 0.28 0.28 30 1014.6
20260503194336 60 60 3.0 7.0 0.02 0.28 0.28 30 1014.2
20260503193849 61 257 2.0 8.0 0.02 0.28 0.28 31 1014.2
20260503193341 60 187 2.0 8.0 0.02 0.28 0.28 31 1014.3
20260503193054 60 205 3.0 11.0 0.02 0.28 0.28 30 1014.9
20260503192853 61 199 5.0 11.0 0.02 0.28 0.28 29 1014.5
20260503192426 62 315 5.0 12.0 0.01 0.27 0.27 29 1014.5
20260503191853 63 55 5.0 12.0 0.01 0.27 0.27 28 1014.6
20260503191546 63 355 4.0 12.0 0.01 0.27 0.27 29 1014.9
20260503191346 63 5 4.0 7.0 0.01 0.27 0.27 29 1014.5
20260503190838 63 284 4.0 8.0 0.01 0.27 0.27 28 1014.6
20260503190352 61 355 3.0 8.0 0.01 0.27 0.27 31 1014.5
20260503190022 61 242 3.0 8.0 0.00 0.26 0.26 31 1015.2
20260503185921 61 283 5.0 7.0 0.00 0.26 0.26 30 1014.7
20260503185347 60 260 4.0 9.0 0.00 0.26 0.26 31 1014.7
20260503184839 60 326 3.0 8.0 0.00 0.26 0.26 30 1014.8
20260503184554 61 240 3.0 8.0 0.00 0.26 0.26 29 1015.4
20260503184353 61 44 4.0 8.0 0.00 0.26 0.26 30 1014.9
20260503183844 61 342 3.0 7.0 0.00 0.26 0.26 30 1014.9
20260503183339 62 331 2.0 6.0 0.00 0.26 0.26 30 1014.9
20260503183011 61 281 3.0 6.0 0.00 0.26 0.26 29 1015.5
20260503182911 63 236 2.0 7.0 0.00 0.26 0.26 29 1015.0
20260503182343 61 329 3.0 9.0 0.00 0.26 0.26 29 1015.0
20260503181836 61 90 3.0 9.0 0.00 0.26 0.26 32 1014.9
20260503181600 61 344 5.0 8.0 0.00 0.26 0.26 29 1015.5
20260503180905 61 300 3.0 7.0 0.00 0.26 0.26 30 1015.1
20260503180357 60 239 3.0 7.0 0.00 0.26 0.26 33 1014.9
20260503180047 59 260 3.0 6.0 0.00 0.26 0.26 29 1015.5
20260503175846 60 67 4.0 7.0 0.00 0.26 0.26 31 1015.1
20260503175338 58 296 4.0 7.0 0.02 0.26 0.26 30 1015.3
20260503174851 58 306 2.0 12.0 0.04 0.26 0.26 31 1015.3
20260503174510 59 345 2.0 12.0 0.05 0.26 0.26 30 1015.8
20260503174403 60 20 3.0 12.0 0.05 0.26 0.26 30 1015.4
20260503173914 59 69 3.0 8.0 0.05 0.26 0.26 32 1015.5
20260503173407 58 329 2.0 9.0 0.05 0.26 0.26 32 1015.4
20260503173051 57 136 4.0 9.0 0.05 0.26 0.26 33 1015.9
20260503172838 57 35 2.0 8.0 0.05 0.26 0.26 32 1015.5
20260503172350 58 266 4.0 11.0 0.06 0.26 0.26 32 1015.6
20260503171843 58 251 4.0 11.0 0.06 0.26 0.26 31 1015.6
20260503171540 58 276 2.0 7.0 0.06 0.26 0.26 31 1016.1
20260503171335 58 115 3.0 9.0 0.06 0.26 0.26 32 1015.8
20260503170847 58 344 4.0 9.0 0.06 0.26 0.26 34 1015.8
20260503170342 56 30 327.0 327.0 0.00 0.00 0.26 34 1015.7
20260503150850 52 344 2.0 6.0 0.03 0.05 0.05 43 1017.1
20260503150343 51 54 1.0 9.0 0.03 0.05 0.05 48 1017.2
20260503081532 36 33 0.0 0.0 0.00 0.00 0.00 89 1015.7
20260503071526 36 33 0.0 0.0 0.00 0.00 0.00 89 1015.2
20260503054518 35 33 0.0 0.0 0.00 0.00 0.00 87 1015.0
20260503053017 35 33 0.0 0.0 0.00 0.00 0.00 86 1015.0
20260503051512 36 33 0.0 0.0 0.00 0.00 0.00 84 1015.1
20260503050010 37 33 0.0 0.0 0.00 0.00 0.00 83 1015.1
20260503045348 37 33 0.0 0.0 0.00 0.00 0.00 82 1014.7
20260503044839 38 33 0.0 0.0 0.00 0.00 0.00 82 1014.8
20260503044604 37 33 0.0 0.0 0.00 0.00 0.00 82 1015.1
20260503044353 38 33 0.0 0.0 0.00 0.00 0.00 81 1014.7
20260503043844 38 33 0.0 0.0 0.00 0.00 0.00 80 1014.7
20260503043336 38 33 0.0 0.0 0.00 0.00 0.00 80 1014.8
20260503043055 38 33 0.0 0.0 0.00 0.00 0.00 79 1015.1